Regional Weather Roundup
Issued by NWS Goodland, KS

Home | Current Version | Previous Version | Text Only | Print | Product List | Glossary On
Versions: 1 2 3 4 5 6 7 8 9 10 11 12 13 14 15 16 17 18 19 20 21 22 23 24 25 26 27 28 29 30 31 32 33 34 35 36 37 38 39 40 41 42 43 44 45 46 47 48 49 50
000
ASUS43 KGLD 210308
RWRGLD

GOODLAND FORECAST AREA HOURLY WEATHER ROUNDUP
NATIONAL WEATHER SERVICE GOODLAND KS
900 PM MDT WED SEP 20 2017

...OFFICIAL OBSERVATIONS...

CITY           SKY/WX    TMP DP  RH WIND       PRES   REMARKS
GOODLAND KS    CLEAR     59  36  42 SE10      29.90R
HILL CITY KS   CLEAR     62  37  39 E5        29.89R
IMPERIAL NEB   CLEAR     55  35  47 SE8       29.88S
MCCOOK NEB     CLEAR     60  39  45 SE8       29.89S
AKRON CO       CLEAR     57  28  33 SE12      29.89S
BURLINGTON CO  CLEAR     60  36  40 SE12      29.92R
LIMON CO       CLEAR     57  31  37 SE12      29.93R
$$

...UNOFFICIAL OBSERVATIONS...

CITY           SKY/WX    TMP DP  RH WIND       PRES   REMARKS
LENORA KS        N/A     64  32  30 MISG        N/A
NORTON KS      CLEAR     57  36  44 NE6       29.88S
SHARON SPRINGS   N/A     58  38  47 SE8         N/A
TRENTON NEB      N/A     60  32  34 SE7         N/A
KIT CARSON CO    N/A     62  35  36 MISG        N/A
YUMA CO        FAIR      55  19  24 SE7       29.89S
$$




USA.gov is the U.S. government's official web portal to all federal, state and local government web resources and services.